OpenBCM V1.13 (Linux)

Packet Radio Mailbox

DB0FHN

[JN59NK Nuernberg]

 Login: GUEST





  
I0OJJ  > KEPS     23.01.26 02:33l 330 Lines 15637 Bytes #999 (0) @ AMSAT
BID : ORB26023.1
Read: OE5RCO DJ6UX GUEST
Subj: 2Line Orbital Elements 26023.AMSAT
Path: DB0FHN<DB0RKB<DK0WUE<ZL2BAU<N2NOV<I0OJJ<I0OJJ
Sent: 260123/0021z @:I0OJJ.ITA.EU [Rome] obcm1.13-37-gc689

>From i0ojj%i0ojj.ita.eu@i0ojj.ampr.org Fri Jan 23 01:21:06 2026
Received: from i0ojj.ampr.org by i0ojj.ampr.org (JNOS2.0q) with SMTP
	id AA17050498 ; Fri, 23 Jan 2026 01:21:06 +0100
Message-Id: <ORB26023.1@i0ojj.bbs>
>From: i0ojj@i0ojj.ita.eu
X-JNOS-User-Port: Telnet   (i0ojj @ 44.134.109.10)  -> Sending message

From: I0OJJ @ I0OJJ.ITA.EU (Gustavo)
To:   KEPS @ AMSAT
X-Info: This message was generated automatically


QST de W1STR

AMSAT Orbital Elements for Amateur Satellites in TLE Format
>From Orbital Analysis Office
New England Sci-Tech STEM Education Center
Natick MA January 23, 2026
To all radio amateurs


These element sets describe the orbits of various satellites 
in use by the amateur radio community. For details see:
www.amsat.org/keplerian-elements-formats/

A daily update of element sets is available at:
www.amsat.org/tle/daily-bulletin.txt
or without bulletin text:
www.amsat.org/tle/dailytle.txt


AO-07
1 07530U 74089B   26022.53192463 -.00000043  00000-0  19668-4 0  9990
2 07530 101.9968  34.2284 0012356  50.1017 101.5694 12.53695239342263
UO-11
1 14781U 84021B   26022.48348210  .00002558  00000-0  26889-3 0  9994
2 14781  97.7873 349.8962 0006539 315.6436  44.4257 14.90311157235420
AO-27
1 22825U 93061C   26022.41622955  .00000287  00000-0  12640-3 0  9997
2 22825  98.7081  89.7681 0008763 161.4589 198.6914 14.30894847686153
FO-29
1 24278U 96046B   26022.36447743  .00000041  00000-0  73874-4 0  9996
2 24278  98.5436 251.0375 0350851 114.6923 249.1169 13.53265276453443
GO-32
1 25397U 98043D   26022.44898629  .00000180  00000-0  98155-4 0  9993
2 25397  98.9965  11.6099 0000299 305.6617  54.4533 14.24390864430583
ISS
1 25544U 98067A   26022.23890398  .00015740  00000-0  28748-3 0  9993
2 25544  51.6328 301.9816 0007710  45.6250 314.5369 15.49550203549139
NO-44
1 26931U 01043C   26022.03945295  .00000405  00000-0  18191-3 0  9990
2 26931  67.0499 262.2600 0007165 267.3626  92.6656 14.31883119269524
SO-50
1 27607U 02058C   26022.28011326  .00002775  00000-0  34622-3 0  9993
2 27607  64.5514 220.2804 0073783 289.0652  70.2473 14.82578967242825
CO-55
1 27844U 03031E   26022.47819666  .00000649  00000-0  30037-3 0  9996
2 27844  98.6769  32.8574 0008605 246.3155 113.7121 14.24221217170938
CO-57
1 27848U 03031J   26022.46457718  .00000547  00000-0  25958-3 0  9998
2 27848  98.6797  32.6733 0008423 266.6562  93.3653 14.23522974170647
RS-22
1 27939U 03042A   26022.54047666  .00003832  00000-0  60269-3 0  9991
2 27939  98.3382 202.8333 0011655  16.2191  75.9853 14.73109103194105
CO-58
1 28895U 05043F   26022.36313422  .00003583  00000-0  57717-3 0  9999
2 28895  98.2757 175.1418 0013369 311.0104  48.9946 14.72087703 80299
CO-65
1 32785U 08021C   26022.46487603  .00007429  00000-0  49113-3 0  9999
2 32785  97.8146   1.1598 0009904 152.5610 207.6142 15.07645019963220
CO-66
1 32791U 08021J   26022.49158763  .00019774  00000-0  74937-3 0  9999
2 32791  97.7481  14.0958 0005648  95.1773 265.0109 15.26921488965012
RS-30
1 32953U 08025A   26022.51317640  .00000040  00000-0  21686-3 0  9996
2 32953  82.5015  86.0635 0018287 268.5318  91.3667 12.43173861801593
SRMSAT
1 37841U 11058D   26022.26255451  .00000523  00000-0  14012-3 0  9991
2 37841  19.9705 222.7041 0011776  38.6916 116.8855 14.11527887737172
ZACUBE-1
1 39417U 13066B   26022.43543199  .00008845  00000-0  70929-3 0  9995
2 39417  97.8115 344.0585 0042487  18.1045 342.1680 14.99628575658874
Delfi-N3xt
1 39428U 13066N   26022.24272565  .00013262  00000-0  12167-2 0  9990
2 39428  97.8352 302.9275 0077445 333.1637  26.5585 14.92703814652837
GOMX-1
1 39430U 13066Q   26022.57439241  .00005095  00000-0  77433-3 0  9998
2 39430  97.6574 232.1526 0129634 184.5166 175.4882 14.68856637648531
LO-74
1 39440U 13066AA  26022.44314912  .00005253  00000-0  50123-3 0  9995
2 39440  97.8758 331.0862 0059825 149.0011 211.4761 14.92394513655249
AO-73
1 39444U 13066AE  26022.37421811  .00012933  00000-0  85666-3 0  9991
2 39444  97.8123 351.1868 0037784 342.7883  17.2060 15.06856525657683
DTUSAT-2
1 40030U 14033W   26022.49884660  .00010870  00000-0  62663-3 0  9997
2 40030  98.0802  11.2924 0009053  24.1016 336.0635 15.12545831630646
EO-80
1 40032U 14033Y   26022.44058025  .00011474  00000-0  65929-3 0  9991
2 40032  98.0682  10.5688 0006642 324.7422  35.3367 15.12663750630613
LILACSAT-2
1 40908U 15049K   26022.52839009  .00019201  00000-0  39191-3 0  9997
2 40908  97.4870  54.1974 0009353  67.3562 292.8675 15.46190610573206
Horyu-4
1 41340U 16012D   26022.37038773  .00075757  00000-0  10652-2 0  9999
2 41340  30.9939  30.0770 0004665 272.2324  87.7793 15.55316576547873
Lapan A3
1 41603U 16040E   26022.52458374  .00005394  00000-0  17707-3 0  9991
2 41603  97.1449  23.6110 0010757 167.3832 192.7682 15.31938949532505
CAS-2T
1 41847U 16066G   26022.50005573  .00003021  00000-0  43425-3 0  9997
2 41847  98.3968  99.8392 0342805 211.2838 146.7550 14.44274259483764
TechnoSat
1 42829U 17042E   26022.45659654  .00006119  00000-0  44793-3 0  9992
2 42829  97.4082 185.9247 0017314 229.3362 130.6360 15.03801523464793
AO-91
1 43017U 17073E   26022.41777111  .00010228  00000-0  46934-3 0  9996
2 43017  97.4916 252.7081 0160128 110.5740 251.2750 15.09808731443379
S-Net D
1 43186U 18014G   26022.31753297  .00007652  00000-0  41349-3 0  9999
2 43186  97.5478 288.0946 0009073 151.6485 208.5243 15.14945956436668
S-Net B
1 43187U 18014H   26022.26020818  .00007956  00000-0  43005-3 0  9998
2 43187  97.5486 288.0193 0009874 148.6054 211.5769 15.14919035436654
S-Net A
1 43188U 18014J   26022.25102140  .00007689  00000-0  41536-3 0  9997
2 43188  97.5495 288.1932 0009734 148.9150 211.2660 15.14950809436653
S-Net C
1 43189U 18014K   26022.46148493  .00007368  00000-0  39845-3 0  9996
2 43189  97.5510 288.4542 0011357 143.0555 217.1461 15.14914484435237
Ten-Koh
1 43677U 18084G   26022.48363016  .00003725  00000-0  28838-3 0  9990
2 43677  98.0722 208.7630 0008084 245.2361 114.8021 15.02097699394287
PO-101
1 43678U 18084H   26022.48881484  .00004526  00000-0  37166-3 0  9999
2 43678  98.1098 212.6209 0006918 276.9559  83.0877 14.99721154394376
QO-100
1 43700U 18090A   26022.08240281  .00000000  00000-0  00000-0 0  9999
2 43700   0.0129  71.1419 0002080 275.7382 190.0605  1.00271344 26219
MinXSS-2
1 43758U 18099A   26022.15358351  .00036934  00000-0  10159-2 0  9990
2 43758  97.4725  95.1226 0009800  74.8646 285.3681 15.37050654391620
AO-95
1 43770U 18099N   26022.14904404  .00016091  00000-0  68461-3 0  9991
2 43770  97.4600  83.1491 0010358 136.4704 223.7352 15.23041734390968
SNUSat 2
1 43782U 18099AA  26022.37768229  .00012223  00000-0  58303-3 0  9999
2 43782  97.4283  78.0981 0012266  87.2797 272.9841 15.19160563390876
SnugLite
1 43784U 18099AC  26022.38838604  .00015093  00000-0  63547-3 0  9991
2 43784  97.4095  78.3077 0004412  87.3724 272.8018 15.23448990391091
ITASat 1
1 43786U 18099AE  26022.41170634  .00009727  00000-0  49661-3 0  9997
2 43786  97.4259  76.8812 0014240 136.2936 223.9428 15.16822354390794
EAGLET 1
1 43790U 18099AJ  26022.42302572  .00007344  00000-0  43542-3 0  9996
2 43790  97.4454  75.9130 0012576 125.5638 234.6767 15.11591197390304
ESEO
1 43792U 18099AL  26022.07745455  .00004466  00000-0  32965-3 0  9999
2 43792  97.4164  65.6088 0013220 109.7227 250.5427 15.03679733389848
JO-97
1 43803U 18099AX  26022.10126095  .00022383  00000-0  80997-3 0  9995
2 43803  97.4350  84.8150 0007502  73.9980 286.2085 15.28402595391278
Suomi 100
1 43804U 18099AY  26021.84187387  .00019758  00000-0  80290-3 0  9995
2 43804  97.4417  83.0086 0012044  78.8287 281.4304 15.24530276391098
ISAT
1 43879U 18111D   26022.31869535  .00054570  00000-0  11306-2 0  9999
2 43879  97.5912 308.7525 0009066 101.2696 258.9571 15.45533226388509
UWE-4
1 43880U 18111E   26022.29721619  .00033178  00000-0  92120-3 0  9993
2 43880  97.5866 305.0180 0011410 119.2234 241.0152 15.36763914388304
Sparrow
1 43881U 18111F   26022.49605994  .00058012  00000-0  10918-2 0  9991
2 43881  97.6105 312.9581 0006944 121.3327 238.8603 15.48329707388662
Prox-1
1 44339U 19036A   26022.33946566  .00015414  00000-0  16707-2 0  9994
2 44339  23.9968   5.6113 0007207 149.9417 210.1496 14.86458858351716
Taurus 1
1 44530U 19059C   26022.55676289  .00008999  00000-0  15095-2 0  9997
2 44530  98.6251 178.6895 0008566  49.8968 310.2986 14.69936634337230
TO-108
1 44881U 19093C   26022.50188567  .00003910  00000-0  45040-3 0  9998
2 44881  97.7700  98.2136 0012954 200.5290 159.5407 14.86223870329775
FloripaSat 1
1 44885U 19093G   26022.42647241  .00010552  00000-0  80987-3 0  9991
2 44885  97.7942 115.8137 0011410 192.4171 167.6774 15.01916998330752
RS-44
1 44909U 19096E   26022.43401609  .00000023  00000-0  39274-4 0  9994
2 44909  82.5189  76.5669 0218459 125.0349 237.1464 12.79746676283705
SALSAT
1 46495U 20068K   26022.42972006  .00010384  00000-0  39216-3 0  9996
2 46495  97.8819  16.9280 0012324  92.5396 267.7252 15.27145639293091
CSS (TIANHE-1)
1 48274U 21035A   26022.36635548  .00023242  00000-0  27251-3 0  9991
2 48274  41.4670 129.7501 0010464 336.4188  23.6170 15.60894995270376
CUTE
1 49263U 21088D   26022.18353295  .00136641  00000-0  15120-2 0  9993
2 49263  97.4297 111.9241 0004820 116.7724 243.4028 15.62547038239609
TeikyoSat 4
1 49396U 21102B   26022.32390177  .00003718  00000-0  23946-3 0  9997
2 49396  97.3849  57.3942 0013776  77.0436 283.2330 15.08862598230721
Z-Sat
1 49399U 21102E   26022.55073909  .00008458  00000-0  43061-3 0  9992
2 49399  97.3529  62.2664 0018210  40.3213 319.9367 15.16903942231354
KOSEN 1
1 49402U 21102H   26022.08382634  .00013004  00000-0  53144-3 0  9999
2 49402  97.3412  67.1420 0014622  10.4146 349.7392 15.24398182231745
